Simultaneous Nadir Overpasses (SNOs) Predictions

Prediction of SNOs between GOES-15 and LANDSAT-8 Satellite Orbit:

Table of predicted SNOs for the next 14.0 days since TLE Epoch: 4/25/2020
Index Date Time (GOES-15) GOES-15 Lat,Lon LANDSAT-8 Lat,Lon Distance(km) Time Diff (sec)
1 04/26/2020 06:39:13 -0.26,-128.14 -0.05,-127.19 108.78 80
2 04/26/2020 19:00:28 0.26,-128.18 1.15,-132.34 473.65 80
3 04/28/2020 06:27:01 -0.26,-128.17 0.60,-124.23 447.87 80
4 04/28/2020 18:48:16 0.25,-128.20 0.51,-129.39 134.71 80
5 04/30/2020 18:38:44 0.25,-128.23 -0.14,-126.44 203.61 80
6 05/01/2020 07:00:07 -0.24,-128.21 -0.96,-131.63 389.26 80
7 05/03/2020 06:47:56 -0.24,-128.22 -0.30,-128.68 51.48 80
8 05/05/2020 06:33:03 -0.24,-128.24 0.29,-125.72 286.29 80
9 05/05/2020 18:54:18 0.23,-128.26 0.76,-130.88 297.34 80
10 05/07/2020 18:44:45 0.23,-128.27 0.17,-127.92 39.77 80




NCC Satellite Simultaneous Nadir Overpasses (SNOs) Prediction Service
